Location: Newark
(36.2350°N, 59.6408°E)
Time: 05:14:29
(UTC+00:00)

ISS - Pass Details

Date: 26 November 2019
Orbit: 411 x 421 km, 51.6° (Epoch: 16 December)

Event Time Altitude Azimuth Distance (km) Brightness Sun altitude
Rises 14:17:39 0° 282° (WNW) 2,352 1.2 -17.8°
Reaches altitude 10° 14:21:02 10° 319° (NW) 1,495 -0.6 -18.5°
Maximum altitude 14:22:09 11° 339° (NNW) 1,423 -1.0 -18.7°
Enters shadow 14:23:04 10° 355° (N) 1,476 -1.1 -18.9°
